User: anonymous   Login
Location: Seminole
(32.7190°N, 102.6440°W)
Time: 18:47:38
(UTC-05:00)
Language:

Meteor 2-10 - Orbit

View from above orbital plane
View from above orbital plane
View from above satellite
View from above satellite

Ground track
Ground track

The orbit data is extracted from the following two-line orbital elements,

1 14452U 83109A   15087.73898522  .00000211  00000-0  79058-4 0  9999
2 14452 081.1646 175.3000 0090347 214.0647 145.4715 14.26322869633346
Epoch (UTC): 28 March 2015 17:44:08
Eccentricity: 0.0090347
inclination: 81.1646°
perigee height: 739 km
apogee height: 869 km
right ascension of ascending node: 175.3000°
argument of perigee: 214.0647°
revolutions per day: 14.26322869
mean anomaly at epoch: 145.4715°
orbit number at epoch: 63334

The dashed part of the orbit path shows where the satellite is in the earth's shadow,  

DLR